Springfield, VT

12:24 AM EDT on March 24, 2017 (GMT -0400)
Hartness State

Weather History for KVSF - December, 2012

Change the Weather History Date:

Thursday, December 27, 2012

  Actual Average Record
Temperature  
Mean Temperature 28 °F 22 °F  
Max Temperature 33 °F 31 °F 49 °F (2016)
Min Temperature 23 °F 13 °F 7 °F (2004)
Degree Days  
Heating Degree Days 37 43  
Month to date heating degree days 894 1046  
Since 1 July heating degree days 2231 2689  
Cooling Degree Days 0 0  
Month to date cooling degree days 0  
Year to date cooling degree days 345  
Moisture  
Dew Point 25 °F    
Average Humidity 83    
Maximum Humidity 92    
Minimum Humidity 74    
Precipitation  
Precipitation 0.59 in 0.09 in 0.90 in (2011)
Month to date precipitation 3.97 2.90  
Year to date precipitation 34.47 43.48  
Sea Level Pressure  
Sea Level Pressure 29.63 in    
Wind  
Wind Speed 7 mph (North)    
Max Wind Speed 16 mph    
Max Gust Speed 24 mph    
Visibility 3 miles    
Events Fog , Snow    
T = Trace of Precipitation, MM = Missing Value Source: NWS Daily Summary

Daily Weather History Graph

Daily Weather History Graph

Search for Another Location

Airport or City:

Trip Planner

Search our weather history database for the weather conditions in past years. The results will help you decide how hot, cold, wet, or windy it might be!

Date:

Astronomy

Dec. 27, 2012 Rise Set
Actual Time 7:21 AM EST 4:21 PM EST
Civil Twilight 6:49 AM EST 4:53 PM EST
Nautical Twilight 6:13 AM EST 5:29 PM EST
Astronomical Twilight 5:38 AM EST 6:04 PM EST
Moon 4:02 PM EST (12/27) 6:29 AM EST (12/27)
Length of Visible Light 10h 04m
Length of Day
8h 59m
Full, 100% of the Moon is Illuminated
Dec 27
Full
Dec 28
Full
Jan 4
Last Quarter
Jan 11
New
Jan 18
First Quarter

Hourly Weather History & Observations

Time (EST) Temp. Windchill Dew Point Humidity Pressure Visibility Wind Dir Wind Speed Gust Speed Precip Events Conditions
12:40 AM 26.6 °F - 21.2 °F 80% 29.92 in 1.0 mi Calm Calm - 0.06 in Snow Light Snow
12:54 AM 26.1 °F 20.5 °F 21.9 °F 84% 29.93 in 1.8 mi NE 4.6 mph - 0.07 in Snow Light Snow
1:03 AM 26.6 °F 20.0 °F 21.2 °F 80% 29.89 in 2.5 mi NNE 5.8 mph - 0.00 in Snow Light Snow
1:09 AM 26.6 °F 19.1 °F 21.2 °F 80% 29.88 in 3.0 mi North 6.9 mph - 0.00 in Snow Light Snow
1:54 AM 27.0 °F 20.5 °F 21.9 °F 81% 29.88 in 3.0 mi NE 5.8 mph - 0.00 in Snow Light Snow
2:15 AM 26.6 °F 19.1 °F 21.2 °F 80% 29.84 in 2.0 mi NNE 6.9 mph - 0.00 in Snow Light Snow
2:26 AM 26.6 °F 19.1 °F 23.0 °F 86% 29.82 in 1.5 mi NNE 6.9 mph - 0.00 in Snow Light Snow
2:54 AM 27.0 °F 21.6 °F 23.0 °F 85% 29.82 in 1.8 mi NNE 4.6 mph - 0.00 in Snow Light Snow
3:26 AM 26.6 °F 21.2 °F 24.8 °F 93% 29.78 in 1.2 mi Variable 4.6 mph - 0.01 in Snow Light Snow
3:54 AM 28.0 °F 21.7 °F 24.1 °F 85% 29.75 in 1.2 mi NNE 5.8 mph - 0.01 in Snow Light Snow
4:27 AM 28.4 °F 22.2 °F 24.8 °F 86% 29.71 in 1.5 mi NNE 5.8 mph - 0.01 in Snow Light Snow
4:47 AM 28.4 °F 22.2 °F 24.8 °F 86% 29.69 in 1.2 mi Variable 5.8 mph - 0.01 in Snow Light Snow
4:54 AM 28.0 °F 20.0 °F 24.1 °F 85% 29.71 in 1.0 mi North 8.1 mph 17.3 mph 0.01 in Snow Light Snow
5:42 AM 28.4 °F - 26.6 °F 93% 29.66 in 0.8 mi Calm Calm - 0.04 in Snow Light Snow
5:51 AM 28.4 °F 23.3 °F 26.6 °F 93% 29.65 in 1.0 mi NNE 4.6 mph - 0.05 in Snow Light Snow
5:54 AM 28.9 °F 22.8 °F 26.1 °F 89% 29.67 in 1.0 mi Variable 5.8 mph - 0.05 in Snow Light Snow
6:54 AM 30.0 °F 25.2 °F 26.1 °F 85% 29.63 in 1.2 mi North 4.6 mph - 0.01 in Snow Light Snow
7:12 AM 28.4 °F 21.2 °F 26.6 °F 93% 29.61 in 0.8 mi North 6.9 mph - 0.03 in Snow Light Snow
7:44 AM 28.4 °F 23.3 °F 26.6 °F 93% 29.60 in 0.5 mi North 4.6 mph - 0.10 in Fog , Snow Snow
7:51 AM 30.2 °F 25.4 °F 26.6 °F 86% 29.59 in 0.5 mi Variable 4.6 mph - 0.11 in Fog , Snow Snow
7:54 AM 30.0 °F 25.2 °F 28.0 °F 92% 29.62 in 0.5 mi North 4.6 mph - 0.12 in Fog , Snow Snow
8:22 AM 30.2 °F 26.7 °F 28.4 °F 93% 29.59 in 0.2 mi Variable 3.5 mph - 0.04 in Fog , Snow Heavy Snow
8:54 AM 30.0 °F 26.5 °F 28.0 °F 92% 29.60 in 0.2 mi North 3.5 mph - 0.08 in Fog , Snow Heavy Snow
9:11 AM 30.2 °F 25.4 °F 28.4 °F 93% 29.56 in 0.5 mi Variable 4.6 mph - 0.02 in Fog , Snow Snow
9:28 AM 30.2 °F 26.7 °F 28.4 °F 93% 29.56 in 1.0 mi North 3.5 mph - 0.02 in Snow Light Snow
9:36 AM 30.2 °F 25.4 °F 28.4 °F 93% 29.55 in 0.8 mi Variable 4.6 mph - 0.02 in Snow Light Snow
9:45 AM 30.2 °F 25.4 °F 28.4 °F 93% 29.55 in 1.0 mi NNE 4.6 mph - 0.03 in Snow Light Snow
9:54 AM 32.0 °F 27.5 °F 28.0 °F 85% 29.57 in 1.2 mi North 4.6 mph - 0.03 in Snow Light Snow
10:54 AM 32.0 °F 25.6 °F 28.0 °F 85% 29.54 in 1.5 mi NNE 6.9 mph - 0.00 in Snow Light Snow
11:54 AM 32.0 °F 24.8 °F 28.9 °F 88% 29.51 in 1.0 mi North 8.1 mph - 0.01 in Snow Light Snow
12:41 PM 32.0 °F 27.5 °F 28.4 °F 87% 29.47 in 0.8 mi Variable 4.6 mph - 0.02 in Snow Light Snow
12:54 PM 32.0 °F 24.8 °F 28.9 °F 88% 29.49 in 0.5 mi North 8.1 mph - 0.04 in Fog , Snow Snow
1:17 PM 32.0 °F 26.4 °F 30.2 °F 93% 29.47 in 0.2 mi North 5.8 mph - 0.03 in Fog , Snow Heavy Snow
1:54 PM 32.0 °F 25.6 °F 30.0 °F 92% 29.50 in 0.2 mi NNE 6.9 mph - 0.09 in Fog , Snow Snow
2:15 PM 30.2 °F 23.4 °F 28.4 °F 93% 29.48 in 0.5 mi North 6.9 mph - 0.03 in Fog , Snow Light Snow
2:30 PM 30.2 °F 25.4 °F 28.4 °F 93% 29.48 in 0.5 mi Variable 4.6 mph - 0.03 in Fog , Snow Snow
2:54 PM 30.9 °F 24.3 °F 28.0 °F 89% 29.52 in 0.8 mi Variable 6.9 mph - 0.04 in Snow Light Snow
3:09 PM 30.2 °F 23.4 °F 28.4 °F 93% 29.50 in 0.8 mi Variable 6.9 mph - 0.01 in Snow Light Snow
3:22 PM 30.2 °F 26.7 °F 28.4 °F 93% 29.51 in 0.5 mi Variable 3.5 mph - 0.02 in Fog , Snow Snow
3:39 PM 30.2 °F 21.9 °F 26.6 °F 86% 29.51 in 1.0 mi NNE 9.2 mph - 0.02 in Snow Light Snow
3:54 PM 30.9 °F 25.2 °F 27.0 °F 85% 29.54 in 1.2 mi Variable 5.8 mph - 0.02 in Snow Light Snow
4:16 PM 30.2 °F 24.3 °F 26.6 °F 86% 29.53 in 3.0 mi NNE 5.8 mph - 0.01 in Snow Light Snow
4:24 PM 30.2 °F 26.7 °F 26.6 °F 86% 29.53 in 2.5 mi NNE 3.5 mph - 0.01 in Snow Light Snow
4:43 PM 30.2 °F 23.4 °F 24.8 °F 80% 29.53 in 3.0 mi Variable 6.9 mph - 0.01 in Snow Light Snow
4:54 PM 30.0 °F 24.1 °F 25.0 °F 82% 29.57 in 3.0 mi Variable 5.8 mph - 0.01 in Snow Light Snow
5:09 PM 30.2 °F 25.4 °F 24.8 °F 80% 29.55 in 2.0 mi Variable 4.6 mph - 0.00 in Snow Light Snow
5:25 PM 30.2 °F 25.4 °F 24.8 °F 80% 29.56 in 4.0 mi Variable 4.6 mph - 0.00 in Snow Light Snow
5:44 PM 28.4 °F 23.3 °F 24.8 °F 86% 29.56 in 4.0 mi Variable 4.6 mph 21.9 mph 0.00 in Snow Light Snow
5:54 PM 28.9 °F 23.9 °F 24.1 °F 82% 29.59 in 4.0 mi Variable 4.6 mph - 0.00 in Snow Light Snow
6:54 PM 28.9 °F 25.2 °F 23.0 °F 78% 29.61 in 4.0 mi Variable 3.5 mph - 0.01 in Snow Light Snow
7:54 PM 26.1 °F 17.6 °F 21.0 °F 81% 29.64 in 10.0 mi West 8.1 mph - 0.00 in   Overcast
8:54 PM 25.0 °F 16.3 °F 19.0 °F 78% 29.66 in 10.0 mi West 8.1 mph - 0.00 in   Overcast
9:54 PM 24.1 °F 13.7 °F 19.0 °F 81% 29.70 in 10.0 mi WNW 10.4 mph 17.3 mph N/A   Overcast
10:45 PM 24.8 °F 16.1 °F 17.6 °F 74% 29.69 in 10.0 mi WNW 8.1 mph 16.1 mph N/A   Overcast
10:54 PM 24.1 °F 11.5 °F 18.0 °F 77% 29.73 in 10.0 mi West 15.0 mph 21.9 mph N/A   Overcast
11:20 PM 23.0 °F 14.7 °F 17.6 °F 80% 29.71 in 10.0 mi WNW 6.9 mph - N/A   Overcast
11:27 PM 23.0 °F 13.1 °F 17.6 °F 80% 29.71 in 10.0 mi WNW 9.2 mph 18.4 mph N/A   Overcast
11:54 PM 23.0 °F 11.1 °F 17.1 °F 78% 29.74 in 10.0 mi NW 12.7 mph 20.7 mph N/A   Overcast